Sarmellek, Hungary

6:11 PM CET on February 25, 2017 (GMT +0100)
Balaton

Weather History for LHSM - December, 2013

Change the Weather History Date:

Friday, December 6, 2013

  Actual Average Record
Temperature  
Mean Temperature 38 °F -  
Max Temperature 46 °F - - ()
Min Temperature 30 °F - - ()
Degree Days  
Heating Degree Days 27    
Moisture  
Dew Point 29 °F    
Average Humidity 72    
Maximum Humidity 93    
Minimum Humidity 40    
Precipitation  
Precipitation 0.00 in - - ()
Sea Level Pressure  
Sea Level Pressure 29.91 in    
Wind  
Wind Speed 4 mph ()    
Max Wind Speed 10 mph    
Max Gust Speed 26 mph    
Visibility 6.0 miles    
Events      
T = Trace of Precipitation, MM = Missing Value Source: Averaged Metar Reports

Daily Weather History Graph

Daily Weather History Graph

Search for Another Location

Airport or City:

Trip Planner

Search our weather history database for the weather conditions in past years. The results will help you decide how hot, cold, wet, or windy it might be!

Date:

Astronomy

Dec. 06, 2013 Rise Set
Actual Time 7:20 AM CET 4:03 PM CET
Civil Twilight 6:46 AM CET 4:38 PM CET
Nautical Twilight 6:07 AM CET 5:16 PM CET
Astronomical Twilight 5:31 AM CET 5:53 PM CET
Moon 10:06 AM CET (12/6) 8:23 PM CET (12/6)
Length of Visible Light 9h 52m
Length of Day
8h 42m
Waxing Crescent, 17% of the Moon is Illuminated
Dec 6
Waxing Crescent
Dec 9
First Quarter
Dec 17
Full
Dec 25
Last Quarter
Jan 1
New

Hourly Weather History & Observations

Time (CET) Temp. Windchill Dew Point Humidity Pressure Visibility Wind Dir Wind Speed Gust Speed Precip Events Conditions
5:15 AM 30.2 °F 26.7 °F 28.4 °F 93% 29.83 in 5.0 mi NW 3.5 mph - N/A   Mostly Cloudy
5:45 AM 30.2 °F 25.4 °F 28.4 °F 93% 29.83 in 5.0 mi SSW 4.6 mph - N/A   Overcast
6:09 AM - - - N/A% - 6.2 mi WSW 6.9 mph - N/A   Mostly Cloudy
6:15 AM 30.2 °F 26.7 °F 28.4 °F 93% 29.83 in 5.0 mi SSE 3.5 mph - N/A   Overcast
6:45 AM 32.0 °F 23.6 °F 30.2 °F 93% 29.89 in 5.0 mi North 10.4 mph 26.5 mph N/A   Overcast
7:15 AM 32.0 °F 26.4 °F 30.2 °F 93% 29.89 in 6.2 mi NE 5.8 mph - N/A   Mostly Cloudy
7:45 AM 32.0 °F 28.7 °F 28.4 °F 87% 29.89 in 6.2 mi SE 3.5 mph - N/A   Mostly Cloudy
8:15 AM 32.0 °F - 30.2 °F 93% 29.89 in 6.2 mi NE 2.3 mph - N/A   Mostly Cloudy
8:45 AM 33.8 °F - 30.2 °F 87% 29.92 in 6.2 mi West 1.2 mph - N/A   Mostly Cloudy
9:00 AM - - - N/A% - 6.2 mi Variable 3.5 mph - N/A   Mostly Cloudy
9:15 AM 33.8 °F - 32.0 °F 93% 29.92 in 6.2 mi Calm Calm - N/A   Mostly Cloudy
9:45 AM 37.4 °F - 32.0 °F 81% 29.95 in 6.2 mi North 2.3 mph - N/A   Mostly Cloudy
10:15 AM 37.4 °F 32.1 °F 32.0 °F 81% 29.95 in 6.2 mi NW 6.9 mph - N/A   Mostly Cloudy
10:45 AM 37.4 °F 32.8 °F 32.0 °F 81% 29.92 in 6.2 mi NNW 5.8 mph - N/A   Mostly Cloudy
11:15 AM 39.2 °F 37.0 °F 32.0 °F 75% 29.92 in 6.2 mi WSW 3.5 mph - N/A   Mostly Cloudy
11:45 AM 41.0 °F 36.4 °F 30.2 °F 65% 29.92 in 6.2 mi NW 6.9 mph - N/A   Scattered Clouds
12:00 PM - - - N/A% - 6.2 mi Variable 3.5 mph - N/A   Mostly Cloudy
12:15 PM 46.4 °F 41.5 °F 28.4 °F 50% 29.92 in 6.2 mi NNW 10.4 mph - N/A   Scattered Clouds
12:45 PM 46.4 °F 41.9 °F 26.6 °F 46% 29.92 in 6.2 mi NNW 9.2 mph - N/A   Partly Cloudy
1:15 PM 46.4 °F 43.5 °F 24.8 °F 43% 29.92 in 6.2 mi North 5.8 mph - N/A   Partly Cloudy
1:45 PM 46.4 °F 42.9 °F 23.0 °F 40% 29.92 in 6.2 mi NNW 6.9 mph - N/A   Partly Cloudy
2:15 PM 46.4 °F - 23.0 °F 40% 29.92 in 6.2 mi NW 2.3 mph - N/A   Scattered Clouds
2:45 PM 46.4 °F 45.2 °F 24.8 °F 43% 29.92 in 6.2 mi North 3.5 mph - N/A   Scattered Clouds
3:15 PM 44.6 °F 40.7 °F 30.2 °F 57% 29.92 in 6.2 mi SSE 6.9 mph - N/A   Partly Cloudy
3:45 PM 41.0 °F 39.0 °F 30.2 °F 65% 29.92 in 6.2 mi East 3.5 mph - N/A   Partly Cloudy
4:15 PM 39.2 °F - 28.4 °F 65% 29.95 in 6.2 mi ENE 2.3 mph - N/A   Partly Cloudy
4:45 PM 35.6 °F - 28.4 °F 75% 29.95 in 6.2 mi Calm Calm - N/A   Partly Cloudy
5:00 PM - - - N/A% - - North - - N/A   Unknown